Regional Weather Roundup
Issued by NWS New Orleans/Baton Rouge, LA

Home | Current Version | Previous Version | Graphics & Text | Print | Product List | Glossary On
Versions: 1 2 3 4 5 6 7 8 9 10 11 12 13 14 15 16 17 18 19 20 21 22 23 24 25 26 27 28 29 30 31 32 33 34 35 36 37 38 39 40 41 42 43 44 45 46 47 48 49 50
903
ASUS44 KLIX 012201
RWRLIX
NEW ORLEANS REGIONAL WEATHER ROUNDUP
NATIONAL WEATHER SERVICE NEW ORLEANS LA
400 PM CST SUN FEB 01 2015

NOTE: "FAIR" INDICATES FEW OR NO CLOUDS BELOW 12,000 FEET WITH NO
      SIGNIFICANT WEATHER AND/OR OBSTRUCTIONS TO VISIBILITY.
      SKY/WX - SKY CONDITION AND SIGNIFICANT WEATHER.
      TMP - AIR TEMPERATURE.     DP    - DEWPOINT TEMPERATURE.
      RH  - RELATIVE HUMIDITY.   PRES  - PRESSURE.
      HI  - HEAT INDEX.          WCI   - WIND CHILL INDEX.

*  THESE STATIONS ARE NOT NWS OR FAA STATIONS AND ARE NOT UNDER
   NWS QUALITY CONTROL.

LAZ038-040-048-061>063-065>067-069-012300-
SOUTHEAST LOUISIANA

CITY           SKY/WX    TMP DP  RH WIND       PRES   REMARKS
N.O. AUDUBON     N/A     73  63  71 MISG        N/A
N.O. INTL ARPT PTSUNNY   72  58  61 SW18G25   29.90S
N.O. LAKEFRONT CLOUDY    71  57  61 SW15      29.90F
N.O. DOWNTOWN* NOT AVBL
SLIDELL        CLOUDY    68  61  78 SW5       29.90S
BATON ROUGE    CLOUDY    67  63  87 SW12      29.88S
BOOTHVILLE     CLOUDY    71  65  81 SW7       29.93F
BELLE CHASSE   PTSUNNY   73  60  63 SW13      29.90F
BOGALUSA*      LGT RAIN  66  62  87 S6        29.90F
GALLIANO*      NOT AVBL
NEW ROADS*     NOT AVBL
GONZALES*      NOT AVBL
HAMMOND*       NOT AVBL
HOUMA*         NOT AVBL
PORT FOURCHON* PTCLDY    70  64  83 W8        29.96S

$$

MSZ070-080>082-012300-
SOUTHERN MISSISSIPPI

CITY           SKY/WX    TMP DP  RH WIND       PRES   REMARKS
MCCOMB         CLOUDY    65  62  90 SW9       29.86F
GULFPORT       PTSUNNY   67  63  87 SW8       29.90F
BILOXI         PTSUNNY   64  62  94 SW10      29.91S
PASCAGOULA     CLOUDY    65  62  90 S7        29.91F
STENNIS ARPT*  CLOUDY    68  63  83 SW6       29.90F

$$

COASTAL OBSERVATIONS
LAKE AND NEARSHORE STATIONS

STATION/POSITION TIME  TEMP    WIND        PRES    WAVE
                       AIR SEA DIR/SP/G            HT/PER
                 (UTC) (F)     (DEG/KT/KT) (MB)    (FT/S)
PASCAGOULA       2122   63     220/  6/  9 1012.7
WAVELAND YACHT   2122   66     190/  5/  9 1011.9
GRAND ISLE       2122   70 63  250/  8/ 10 1013.9
SOUTHWEST PASS   2122   70 50  250/  7/  7 1014.0
NEW CANAL        2122   73 57  230/ 11/ 20 1012.8
SHELL BEACH      2122   70 57  210/ 13/ 16 1012.7

OFFSHORE STATIONS

STATION/POSITION TIME  TEMP    WIND        PRES    WAVE
                       AIR SEA DIR/SP/G            HT/PER
                 (UTC) (F)     (DEG/KT/KT) (MB)    (FT/S)
64 S DAUPHIN ISL 2059   70 69  240/ 12/ 14 1013.9    5/ 7

$$




USA.gov is the U.S. government's official web portal to all federal, state and local government web resources and services.